Regional Weather Roundup
Issued by NWS

Home | Current Version | Previous Version | Text Only | Print | Product List | Glossary Off
Versions: 1 2 3 4 5 6 7 8 9 10 11 12 13 14 15 16 17 18 19 20 21 22 23 24 25 26 27 28 29 30 31 32 33 34 35 36 37 38 39 40 41 42 43 44 45 46 47 48 49 50

252
ASUS43 KFSD 261502
RWRSD

WEATHER ROUNDUP FOR SOUTH DAKOTA
NATIONAL WEATHER SERVICE SIOUX FALLS SD
1000 AM CDT MON JUN 26 2017

NOTE: "FAIR" INDICATES FEW OR NO CLOUDS BELOW 12,000 FEET WITH NO
SIGNIFICANT WEATHER AND/OR OBSTRUCTIONS TO VISIBILITY.


SDZ001>005-009-010-012>017-261600-
NORTHWEST AND NORTH CENTRAL SOUTH DAKOTA

CITY           SKY/WX    TMP DP  RH WIND       PRES   REMARKS
BUFFALO          N/A     67  42  40 S17       30.17F
FAITH            N/A     62  44  51 S12       30.26S
MOBRIDGE       SUNNY     62  45  53 CALM      30.25S
$$

SDZ012>016-024>037-041>051-057-063-072>074-261600-
SOUTHWEST AND SOUTH CENTRAL SOUTH DAKOTA

CITY           SKY/WX    TMP DP  RH WIND       PRES   REMARKS
RAPID CTY ARPT SUNNY     65  39  38 SE13      30.26S
PIERRE         SUNNY     63  45  51 E8        30.25S
CUSTER         SUNNY     59  33  37 VRB5      30.32S
ELLSWORTH AFB  SUNNY     66  39  37 S16       30.24F
PHILIP         SUNNY     63  46  54 E8        30.25F
PINE RIDGE     SUNNY     67  42  40 E10       30.26S
SPEARFISH      FAIR      64  43  45 NE3       30.24F
WINNER         FAIR      68  47  46 E10       30.25S
$$

SDZ004>011-016>023-039-040-261600-
NORTHEAST SOUTH DAKOTA

CITY           SKY/WX    TMP DP  RH WIND       PRES   REMARKS
ABERDEEN       SUNNY     63  43  48 N6        30.28R
WATERTOWN      SUNNY     60  43  53 N14       30.25S
BROOKINGS      SUNNY     61  42  49 NE8       30.25S
SISSETON         N/A     63  42  46 N9        30.26R
$$

SDZ017-020-022-023-036>040-048>070-261600-
SOUTHEAST SOUTH DAKOTA

CITY           SKY/WX    TMP DP  RH WIND       PRES   REMARKS
SIOUX FALLS    MOSUNNY   63  51  65 E9        30.24R
HURON          SUNNY     62  47  57 CALM      30.27R
CHAMBERLAIN    SUNNY     67  48  52 NE7       30.26S
MITCHELL       SUNNY     65  48  54 NE9       30.26S
YANKTON        SUNNY     64  51  62 E9        30.23S
$$

ABBREVIATIONS USED IN REMARKS
   TC - TEMPERATURE IN CELSIUS
  WCI - WIND CHILL INDEX
   HX - HEAT INDEX
  VSB - VISIBILITY





USA.gov is the U.S. government's official web portal to all federal, state and local government web resources and services.